Weather in Krivlyak

Russia / Krasnoyarsk Krai     60°17′58″N   90°01′42″E
temp.,
°C
wind,
m/s
gust,
m/s
humid.,
%
clouds,
%
prec.,
mm/h
press.,
hPa
HPBL,
m
24 july, sat
sat2401:00+18se22784 0.0 101131
04:00+16se23865 0.0 101145
07:00+20se23660 0.0 1012145
10:00+26se35390 0.0 1011888
13:00+30se35295 0.0 10102150
16:00+31se34252 0.0 10092279
19:00+30se24350 0.0 1009365
22:00+21ese11535 0.0 100911
25 july, sun
sun2501:00+19ese22657 0.0 101022
04:00+17ese23694 0.0 100955
07:00+21se25595 0.0 1010167
10:00+28se35380 0.0 1009690
13:00+32sse46295 0.0 10082183
16:00+33sse462763 0.0 10072474
19:00+31s243899 0.0 1006159
22:00+23se225780 0.0 100611
26 july, mon
mon2601:00+21ese226383 0.0 100641
04:00+20ese286782 0.0 1005136
07:00+23se312595 0.0 1004375
10:00+30se57355 0.0 10031003
13:00+32sse58275 0.0 10012684
16:00+33sse58250 0.0 9993014
19:00+31sse410300 0.0 9981937
22:00+23ese37543 0.0 997119
27 july, tue
tue2701:00+21se3106168 0.0 997190
04:00+20sse41262100 0.0 996426
07:00+19sse3888100 0.5 997287
10:00+21s3686100 0.5 998682
13:00+16ssw3891100 1.6 1000697
16:00+18sw5755100 0.1 10021433
19:00+15ssw4763100 0.1 10031082
22:00+14sw4767100 0.0 1005903
28 july, wed
wed2801:00+13ssw3775100 0.1 1006635
04:00+12sw3778100 0.1 1007688
07:00+11ssw3784100 0.2 1008567
10:00+12sw3582100 0.1 1009653
13:00+14w3465100 0.2 10111100
16:00+16wnw245497 0.1 10121527
19:00+14nw3458100 0.1 10131087
22:00+12nnw1366100 0.0 1013104